TimeCDT,TemperatureF,Dew PointF,Humidity,Sea Level PressureIn,VisibilityMPH,Wind Direction,Wind SpeedMPH,Gust SpeedMPH,PrecipitationIn,Events,Conditions,WindDirDegrees,DateUTC
12:53 AM,35.1,21.9,59,30.07,10.0,NE,4.6,-,N/A,,Overcast,40,2013-03-23 05:53:00
1:53 AM,35.1,21.9,59,30.06,10.0,NE,6.9,-,N/A,,Overcast,50,2013-03-23 06:53:00
2:53 AM,34.0,23.0,64,30.06,10.0,NE,8.1,-,N/A,,Overcast,40,2013-03-23 07:53:00
3:53 AM,34.0,23.0,64,30.06,10.0,NE,6.9,-,N/A,,Overcast,50,2013-03-23 08:53:00
4:53 AM,33.1,23.0,66,30.05,10.0,ENE,8.1,-,N/A,,Overcast,60,2013-03-23 09:53:00
5:53 AM,32.0,21.9,66,30.06,10.0,NE,3.5,-,N/A,,Overcast,40,2013-03-23 10:53:00
6:53 AM,30.0,23.0,75,30.07,10.0,NNE,8.1,-,N/A,,Scattered Clouds,30,2013-03-23 11:53:00
7:53 AM,32.0,24.1,73,30.10,10.0,NE,4.6,-,N/A,,Mostly Cloudy,40,2013-03-23 12:53:00
8:53 AM,35.1,23.0,61,30.11,10.0,ENE,6.9,-,N/A,,Clear,60,2013-03-23 13:53:00
9:53 AM,36.0,23.0,59,30.10,10.0,ENE,6.9,-,N/A,,Clear,70,2013-03-23 14:53:00
10:53 AM,41.0,21.0,45,30.09,10.0,ENE,10.4,-,N/A,,Scattered Clouds,70,2013-03-23 15:53:00
11:53 AM,44.1,21.9,42,30.09,10.0,NNE,6.9,-,N/A,,Clear,30,2013-03-23 16:53:00
12:53 PM,44.1,21.9,42,30.09,10.0,East,6.9,-,N/A,,Partly Cloudy,80,2013-03-23 17:53:00
1:53 PM,46.0,21.0,37,30.06,10.0,Variable,4.6,-,N/A,,Clear,0,2013-03-23 18:53:00
2:53 PM,46.9,21.9,37,30.02,10.0,North,10.4,16.1,N/A,,Clear,10,2013-03-23 19:53:00
3:53 PM,46.9,21.0,36,29.99,10.0,NNE,13.8,-,N/A,,Clear,20,2013-03-23 20:53:00
4:53 PM,46.9,19.9,34,29.97,10.0,NE,10.4,-,N/A,,Clear,50,2013-03-23 21:53:00
5:53 PM,45.0,19.9,37,29.96,10.0,NE,12.7,-,N/A,,Partly Cloudy,50,2013-03-23 22:53:00
6:53 PM,43.0,21.9,43,29.98,10.0,NE,11.5,-,N/A,,Clear,50,2013-03-23 23:53:00
7:53 PM,42.1,21.9,45,29.98,10.0,NE,13.8,20.7,N/A,,Mostly Cloudy,50,2013-03-24 00:53:00
8:53 PM,39.9,24.1,53,29.99,10.0,NE,20.7,26.5,N/A,,Overcast,40,2013-03-24 01:53:00
9:53 PM,37.9,23.0,55,30.01,10.0,ENE,12.7,21.9,N/A,,Overcast,60,2013-03-24 02:53:00
10:10 PM,37.4,24.8,60,29.99,4.0,ENE,13.8,24.2,0.00,Snow,Light Snow,60,2013-03-24 03:10:00
10:15 PM,35.6,26.6,70,29.99,1.8,ENE,16.1,24.2,0.00,Snow,Light Snow,60,2013-03-24 03:15:00
10:21 PM,33.8,28.4,81,29.99,0.8,ENE,15.0,23.0,0.00,Snow,Light Snow,60,2013-03-24 03:21:00
10:37 PM,33.8,30.2,87,30.00,0.8,ENE,12.7,17.3,0.00,Snow,Light Snow,60,2013-03-24 03:37:00
10:53 PM,32.0,30.9,96,30.01,0.5,ENE,12.7,-,0.00,Fog-Snow,Snow,60,2013-03-24 03:53:00
11:03 PM,32.0,30.2,93,29.99,0.5,NE,10.4,-,0.00,Fog-Snow,Snow,50,2013-03-24 04:03:00
11:17 PM,32.0,30.2,93,29.99,0.8,NE,11.5,-,0.00,Snow,Light Snow,50,2013-03-24 04:17:00
11:25 PM,32.0,30.2,93,29.99,1.0,NE,12.7,-,0.00,Snow,Light Snow,40,2013-03-24 04:25:00
11:53 PM,32.0,30.0,92,30.01,2.0,NE,11.5,-,0.00,Snow,Light Snow,40,2013-03-24 04:53:00